Regional Weather Roundup
Issued by NWS Charleston, SC

Current Version | Previous Version | Text Only | Print | Product List | Glossary Off
Versions: 1 2 3 4 5 6 7 8 9 10 11 12 13 14 15 16 17 18 19 20 21 22 23 24 25 26 27 28 29 30 31 32 33 34 35 36 37 38 39 40 41 42 43 44 45 46 47 48 49 50

000
ASUS42 KCHS 301111
RWRCHS

REGIONAL WEATHER ROUNDUP
NATIONAL WEATHER SERVICE CHARLESTON SC
700 AM EDT MON MAR 30 2015

NOTE: "FAIR" INDICATES FEW OR NO CLOUDS BELOW 12,000 FEET WITH NO
SIGNIFICANT WEATHER AND/OR OBSTRUCTIONS TO VISIBILITY.

NOT ALL STATIONS ARE QUALITY CONTROLLED BY THE NATIONAL
WEATHER SERVICE. USE DATA WITH CAUTION...ESPECIALLY
DEWPOINT OBSERVATIONS.

SCZ027-030-031-034>040-042>050-301200-
...SOUTHEAST SOUTH CAROLINA...

CITY           SKY/WX    TMP DP  RH WIND       PRES   REMARKS
N CHARLESTON   PTCLDY    42  37  82 S7        30.21S
WATERFRONT PRK   N/A     48 N/A N/A SW3         N/A
MOUNT PLEASANT LGT RAIN  39  39 100 CALM      30.21S
PINOPOLIS        N/A     50  37  62 SW7       30.10F
MONCKS CORNER  FAIR      45  39  81 SW6       30.21R
SUMMERVILLE    FAIR      37  37 100 CALM      30.22S
BEAUFORT MCAS  CLEAR     46  41  82 S6        30.23R
BEAUFORT ARPT  FAIR      52  45  76 CALM      30.22S
HILTON HEAD IS CLEAR     48  43  81 SW5       30.24S
WALTERBORO     SUNNY     41  37  87 S5        30.21S
ALLENDALE      FAIR      45  39  81 CALM      30.20R

...SOUTHERN MIDLANDS AND PEE DEE...

CITY           SKY/WX    TMP DP  RH WIND       PRES   REMARKS
GEORGETOWN     NOT AVBL
KINGSTREE      NOT AVBL
ORANGEBURG     CLEAR     40  34  79 S7        30.18F WCI  35
BARNWELL       FAIR      45  37  76 S7        30.19S
AIKEN          CLOUDY    45  34  65 S10       30.18S
MANNING        FLURRIES  46  36  66 S6        30.18F
COLUMBIA       PTCLDY    45  34  65 SW8       30.16R
SUMTER         MOCLDY    43  36  75 S9        30.15F
FLORENCE       CLEAR     41  34  76 S8        30.16F
MYRTLE BEACH   PTCLDY    46  36  66 SW7       30.21F
N MYRTLE BEACH PTCLDY    48  38  68 SW10      30.19F

$$

GAZ063-065-086>088-099>101-113>116-118-119-134>141-150-301200-
...SOUTHEAST GEORGIA...

CITY           SKY/WX    TMP DP  RH WIND       PRES   REMARKS
SAVANNAH ARPT  PTCLDY    43  39  86 SW6       30.24S
HUNTER AAF     CLEAR     46  43  86 SW6       30.21S
FORT STEWART   CLEAR     40  37  89 CALM      30.22S
STATESBORO     CLEAR     45  40  82 SW6       30.21S
SYLVANIA       SUNNY     45  40  85 SW5       30.22R
CLAXTON        FAIR      41  39  93 CALM      30.23R

...CSRA...CENTRAL AND FAR SOUTHEAST GEORGIA...

CITY           SKY/WX    TMP DP  RH WIND       PRES   REMARKS
THOMSON        CLOUDY    49  42  75 CALM      30.19S
AUGUSTA-BUSH   PTCLDY    45  37  73 S7        30.17S
AUGUSTA-DANIEL PTCLDY    47  35  63 S7        30.16R
SWAINSBORO     PTSUNNY   46  34  61 S7        30.20S
VIDALIA        PTCLDY    45  41  87 S8        30.22S
EASTMAN        FAIR      47  43  87 S6        30.23S
HAZLEHURST     FAIR      48  41  76 S6        30.22R
ALMA           PTCLDY    43  39  86 SW3       30.24R
WAYCROSS       CLEAR     45  44  95 SW3       30.25R
JESUP          FAIR      37  37 100 CALM      30.24F
BAXLEY         MOCLDY    45  41  87 CALM      30.24R
BRUNSWICK      CLEAR     43  43 100 CALM      30.26S
SAINT SIMONS   CLEAR     49  44  83 SW5       30.25R

$$

SCZ027-028-034-036>038-045-046-048>050-GAZ119-141-301200-
...LAKE AND SUPPLEMENTAL COASTAL OBSERVATIONS...

STATION/POSITION TIME  TEMP    WIND        PRES    WAVE   SWELL
                       AIR SEA DIR/SP/G            HT/PER HT/PER/DIR
                 (UTC) (F)     (DEG/KT/KT) (MB)    (FT/S) (FT/S/D)
UPR LAKE MARION  NOT AVBL
WINYAH BAY       NOT AVBL
LAKE MURRAY      1000   46     210/ 15/ 21 1020.0F
ACE BASIN NERRS  NOT AVBL
FORT PULASKI     1000   53 58  250/  4/  6 1024.3R
SAPELO ISLAND    1000   51     220/  6     1024.0S

$$

ANZ835-935-AMZ111-154-330-350-352-354-370-450-454-472-301200-
...C-MAN AND BUOY OBSERVATIONS...

STATION/POSITION TIME  TEMP    WIND        PRES    WAVE   SWELL
                       AIR SEA DIR/SP/G            HT/PER HT/PER/DIR
                 (UTC) (F)     (DEG/KT/KT) (MB)    (FT/S) (FT/S/D)
BUOY 41004       1050   60 68  240/ 16/ 19 1023.0S   3/ 9   2/ 9
BUOY 41008       1050   59 60  220/ 14/ 16 1024.0R   3/10   2/ 90/10
FOLLY BEACH CMAN 1100   56     230/  9/ 12 1023.4R
CAPERS NEARSHORE NOT AVBL
FRIPP NEARSHORE  1000   58     220/ 14/ 17 1022.5F


STATION/POSITION TIME  TEMP    WIND        PRES    WAVE   SWELL
                       AIR SEA DIR/SP/G            HT/PER HT/PER/DIR
                 (UTC) (F)     (DEG/KT/KT) (MB)    (FT/S) (FT/S/D)
5E ST. MARYS GA  1021      60                N/A     3/10
FRYING PAN BUOY  1050   58 65  220/ 16/ 19 1023.3F   3/ 4   2/ 90/ 8
BUOY 41025       NOT AVBL
CAPE LOOKOUT NC  1100   52     230/ 11/ 15 1022.1F
BUOY 41002       1050   54 67  290/  2/  4 1025.6R   5/ 9   5/ 20/ 9
BUOY 41010       1020   63 75   90/  4/  8 1024.6R
ST AUGUSTINE FL  1100   53 60  230/  4/  4 1025.5R


$$



USA.gov is the U.S. government's official web portal to all federal, state and local government web resources and services.